Ketchikan, AK

12:53 PM AKST on February 19, 2018 (GMT -0900)
Ketchikan International

Weather History for PAKT - February, 2018

Change the Weather History Date:

Sunday, February 4, 2018

  Actual Average Record
Temperature  
Mean Temperature 34 °F -  
Max Temperature 37 °F 42 °F 53 °F (1977)
Min Temperature 30 °F 31 °F 19 °F (1989)
Degree Days  
Heating Degree Days 32    
Moisture  
Dew Point 29 °F    
Average Humidity 85    
Maximum Humidity 100    
Minimum Humidity 62    
Precipitation  
Precipitation 0.19 in - - ()
Sea Level Pressure  
Sea Level Pressure 29.92 in    
Wind  
Wind Speed 2 mph (NW)    
Max Wind Speed 10 mph    
Max Gust Speed -    
Visibility 4 miles    
Events Fog , Snow    
Averages and records for this station are not official NWS values.
T = Trace of Precipitation, MM = Missing Value Source: NWS Daily Summary

Daily Weather History Graph

Daily Weather History Graph

Search for Another Location

Airport or City:

Trip Planner

Search our weather history database for the weather conditions in past years. The results will help you decide how hot, cold, wet, or windy it might be!

Date:

Astronomy

Feb. 04, 2018 Rise Set
Actual Time 7:32 AM AKST 4:29 PM AKST
Civil Twilight 6:53 AM AKST 5:09 PM AKST
Nautical Twilight 6:09 AM AKST 5:53 PM AKST
Astronomical Twilight 5:26 AM AKST 6:35 PM AKST
Moon 10:20 PM AKST (2/4) 9:32 AM AKST (2/4)
Length of Visible Light 10h 16m
Length of Day
8h 56m
Waning Gibbous, 77% of the Moon is Illuminated
Feb 4
Waning Gibbous
Feb 7
Last Quarter
Feb 15
New
Feb 22
First Quarter
Mar 1
Full

Hourly Weather History & Observations

Time (AKST) Temp. Windchill Dew Point Humidity Pressure Visibility Wind Dir Wind Speed Gust Speed Precip Events Conditions
12:41 AM 36.0 °F 33.3 °F 24.1 °F 62% 29.99 in 10.0 mi WNW 3.5 mph - N/A   Overcast
12:53 AM 35.1 °F 32.2 °F 24.1 °F 64% 29.99 in 10.0 mi West 3.5 mph - N/A   Overcast
1:53 AM 36.0 °F - 26.1 °F 67% 29.95 in 6.0 mi Calm Calm - 0.00 in Snow Light Snow
2:53 AM 35.1 °F - 28.0 °F 76% 29.91 in 4.0 mi Calm Calm - 0.00 in Snow Light Snow
3:07 AM 35.1 °F - 28.0 °F 76% 29.90 in 2.0 mi Calm Calm - 0.00 in Snow Light Snow
3:26 AM 37.0 °F - 28.0 °F 70% 29.89 in 1.8 mi Calm Calm - 0.01 in Snow Light Snow
3:53 AM 35.1 °F - 28.9 °F 78% 29.89 in 1.8 mi Calm Calm - 0.03 in Snow Light Snow
4:33 AM 34.0 °F - 30.0 °F 85% 29.87 in 2.0 mi Calm Calm - 0.02 in Snow Light Snow
4:53 AM 34.0 °F - 30.0 °F 85% 29.86 in 1.5 mi Calm Calm - 0.03 in Snow Light Snow
5:23 AM 34.0 °F - 30.0 °F 85% 29.85 in 0.8 mi Calm Calm - 0.02 in Snow Light Snow
5:31 AM 34.0 °F - 30.0 °F 85% 29.85 in 1.0 mi Calm Calm - 0.03 in Snow Light Snow
5:53 AM 34.0 °F - 30.0 °F 85% 29.85 in 1.0 mi Calm Calm - 0.06 in Snow Light Snow
6:17 AM - - - N/A% 29.84 in 1.0 mi Calm Calm - N/A   Unknown
6:53 AM 30.2 °F - 30.2 °F 100% 29.84 in 1.2 mi Calm Calm - N/A Snow Light Snow
7:14 AM 35.1 °F - 30.0 °F 82% 29.83 in 0.8 mi Calm Calm - 0.03 in Snow Light Snow
7:30 AM 32.0 °F - 30.0 °F 92% 29.83 in 0.5 mi Calm Calm - 0.05 in Fog , Snow Snow
7:53 AM 32.0 °F - 30.2 °F 93% 29.84 in 0.8 mi Calm Calm - N/A Snow Light Snow
8:53 AM 32.0 °F - 30.9 °F 96% 29.85 in 0.8 mi Calm Calm - 0.07 in Snow Light Snow
8:54 AM 32.0 °F - 30.2 °F 93% 29.85 in 0.5 mi Calm Calm - N/A Fog , Snow Snow
9:53 AM 32.0 °F - 30.2 °F 93% 29.87 in 0.5 mi Calm Calm - N/A Fog , Snow Snow
10:53 AM 32.0 °F - 32.0 °F 100% 29.88 in 2.0 mi Calm Calm - N/A Snow Light Snow
11:53 AM 32.0 °F 28.7 °F 32.0 °F 100% 29.90 in 2.0 mi Variable 3.5 mph - N/A Snow Light Snow
11:55 AM 32.0 °F 28.7 °F 32.0 °F 100% 29.89 in 2.0 mi North 3.5 mph - N/A Snow Light Snow
12:53 PM 32.0 °F 28.7 °F 32.0 °F 100% 29.91 in 1.0 mi NW 3.5 mph - N/A Snow Light Snow
1:29 PM 32.0 °F - 32.0 °F 100% 29.91 in 2.0 mi Calm Calm - N/A Snow Light Snow
1:53 PM 32.0 °F 27.5 °F 32.0 °F 100% 29.93 in 6.0 mi NW 4.6 mph - N/A Snow Light Snow
2:53 PM 35.6 °F - 30.2 °F 81% 29.93 in 10.0 mi Calm Calm - 0.00 in   Overcast
3:53 PM 33.8 °F - 32.0 °F 93% 29.96 in 10.0 mi Calm Calm - N/A   Overcast
4:53 PM 33.8 °F 29.6 °F 28.4 °F 81% 29.97 in 10.0 mi NW 4.6 mph - N/A   Overcast
5:53 PM 34.0 °F 28.8 °F 28.9 °F 82% 30.00 in 10.0 mi NW 5.8 mph - N/A   Overcast
6:53 PM 34.0 °F 28.0 °F 28.9 °F 82% 30.02 in 10.0 mi NNW 6.9 mph - N/A   Overcast
7:53 PM 34.0 °F 28.0 °F 26.1 °F 73% 30.04 in 10.0 mi NW 6.9 mph - N/A   Overcast
8:53 PM 34.0 °F 28.0 °F 27.0 °F 75% 30.06 in 10.0 mi NW 6.9 mph - N/A   Overcast
9:53 PM - - - N/A% 30.06 in 10.0 mi NW 6.9 mph - N/A   Mostly Cloudy
10:53 PM - - - N/A% 30.07 in 10.0 mi NW 5.8 mph - N/A   Clear
11:53 PM - - - N/A% 30.09 in 10.0 mi NW 10.4 mph - N/A   Clear